Location: *
(51.0333°S, 178.4667°E)
Time: 15:24:28
(UTC+00:00)

STARLINK-72 - Pass Details

Date: 15 November 2019
Orbit: 529 x 530 km, 53.0° (Epoch: 08 December)

Event Time Altitude Azimuth Distance (km) Brightness Sun altitude
Rises 10:48:47 0° 254° (WSW) 2,683 7.6 -19.2°
Reaches altitude 10° 10:51:00 10° 253° (WSW) 1,792 6.6 -19.3°
Maximum altitude 10:55:05 87° 161° (SSE) 542 3.5 -19.4°
Enters shadow 10:56:48 34° 75° (ENE) 899 4.4 -19.5°
